STARLINK-11197, 60186

Orbit data source: Space-Track

STARLINK-11197, 60186 is a payload satellite owned by SpaceX/Seattle (US) in LEO that was launched on Wed, 03 Jul 2024 UTC via an FALCON 9 launch vehicle from the Air Force Eastern Test Range (AFETR). Payload-class satellites include a variety of spacecraft equipped with specific instruments for various scientific and technological missions. These include communications satellites like Starlink; space stations such as the ISS; scientific satellites like the Hubble; Earth observation satellites from companies like Planet Labs, Umbra, and HawkEye 360; GPS; miniature CubeSats for education and research; and military/defense satellites.

Loading next visibility...
Identifier
60186, 2024-124D
Orbit
LEO
Country
Flag of USUS
Related business
Manufacturer
SpaceX/Seattle
Mission
Operational Commercial Communications
Bus & Motor
STARLINK V2MD, Unknown motor
Mass
960 kg wet, ~910 kg dry
Launch date (UTC)
2024-07-03 (1 year ago)
Launch vehicle
FALCON 9
Launch site
Air Force Eastern Test Range (AFETR)
Object type
Payload
Rocket body
Debris
Shape & HBR
Box + 2 Pan, 14.5 m
Radar Cross Section
36.964 m², Large (>1 m²)

Expand to show TLE details & history
Last TLE update: 23 hours ago

TLE from 23 hours ago
0 STARLINK-11197
1 60186U 24124D   25257.42839659 -.00000369  00000-0  18129-5 0  9996
2 60186  53.1584 309.9126 0001097  78.4961 281.6181 15.69703603 68855
Epoch: 2025-09-14T10:16Z
TLE epoch observation values (Epoch: 2025-09-14T10:16:53.465Z)
Latitude
0.00006°
Longitude
162.04233°
Altitude
360.511 km
Speed
7.694 km/s
True Right ascension
20h 39m 39s
True Declination
0° 00' 00"
Sunlit
Object was in full shadow at epoch
Visualization orbit readout
Latitude
Unknown
Longitude
Unknown
Altitude
Unknown
Speed
Unknown
Apparent Right ascension
Unknown
Apparent Declination
Unknown
Sunlit
N/A
Visualization observer readout
Local Sidereal Time
02:08:59
Azimuth
Unknown
Elevation
Unknown
Doppler factor
Unknown
Orbital elements
Apogee altitude
360.745 km
Perigee altitude
359.267 km
Semi-major axis
6,738.143 km
Eccentricity
0.00011
Inclination
53.1584°
RAAN
309.9126°
Arg. of periapsis
78.4961°
True anomaly
281.60579°
Mean anomaly
281.6181°
Eccentric anomaly
281.61194°
Mean motion
3.92403 °/min
Orbital period
91.74 mins
BSTAR
0.0000018129
Loading maneuver chart data...
Computing Atmospheric mass density...
Loading historical data...
Loading historical data...
Loading historical data...
Loading historical data...
Loading historical data...
Loading historical data...
Loading historical data...

Documentation

Showing up to 5 results
|